SKYSAT-B

Last updated on Tue Mar 03 2026 00:02:32 GMT+0000 (Coordinated Universal Time)

1 40072U 14037D 26061.60017713 .00002405 00000+0 27067-3 0 9993 2 40072 98.3716 14.5922 0004173 263.8419 96.2320 14.87690396630116
UTC large
Height (km)
Speed (km/s)
/
Latitude / Longitude
Inclination (degrees)
Orbital Period (minutes)
Azimuth
Elevation
Range (km)
Doppler Factor

Next 0 passes for location: London (51.5072 / 0.1276)

Sorry there are no passes over London.